CPA211 VHHH-UBBB

Flight info

Callsign CPA211
Flight time N/A
Altitude 34100
Route BEKOL A461 SHL W22 TEPID W24 OSNOV G586 QP B330 ELKAL W179 RIRKI W232 WFX W179 OMBON/K0906S1100 Y1 SADAN W186 KAMUD/K0896F360 L141 TADOT/K0891F380 L141 TISIB L163 SR N193 OGOLI T898 DARVA/N0486F380 B476 NEBIT B738 KRS A480 DUKAN L850 ABROL
Aircraft B77W/H-SDE1E2E3FGHIJ2J3J4J5M1RWXY/LB1D1

Departure

Time N/A
Airport Hong Kong International Airport (VHHH)

Arrival

Time 2026-05-06 15:57
Airport Heydar Aliyev International Airport (UBBB)
Time Latitude Longitude Altitude Speed Heading
2026-05-06 12:34 40.82238 82.41784 30130 ft 479 kts 285°
2026-05-06 12:34 40.84339 82.31008 30124 ft 479 kts 285°
2026-05-06 12:35 40.87570 82.14328 30123 ft 480 kts 285°
2026-05-06 12:36 40.90009 82.01639 30122 ft 480 kts 285°
2026-05-06 12:37 40.91943 81.91520 30120 ft 480 kts 285°
2026-05-06 12:37 40.94141 81.79953 30122 ft 480 kts 284°
2026-05-06 12:38 40.95759 81.71400 30122 ft 480 kts 284°
2026-05-06 12:38 40.97410 81.62843 30112 ft 479 kts 286°
2026-05-06 12:39 40.99325 81.54394 30120 ft 479 kts 288°
2026-05-06 12:39 41.01295 81.45963 30119 ft 479 kts 288°
2026-05-06 12:40 41.03210 81.37566 30120 ft 479 kts 287°
2026-05-06 12:40 41.05108 81.29097 30116 ft 479 kts 287°
2026-05-06 12:41 41.06994 81.20619 30115 ft 479 kts 287°
2026-05-06 12:41 41.08874 81.12143 30116 ft 479 kts 287°
2026-05-06 12:42 41.10738 81.03714 30121 ft 479 kts 287°
2026-05-06 12:42 41.12608 80.95227 30121 ft 479 kts 287°
2026-05-06 12:43 41.14468 80.86749 30119 ft 478 kts 287°
2026-05-06 12:43 41.16322 80.78271 30125 ft 478 kts 287°
2026-05-06 12:44 41.18167 80.69795 30123 ft 478 kts 287°
2026-05-06 12:44 41.19997 80.61359 30129 ft 478 kts 287°
2026-05-06 12:45 41.21829 80.52877 30125 ft 477 kts 287°
2026-05-06 12:46 41.24553 80.40205 30126 ft 477 kts 287°
2026-05-06 12:46 41.26369 80.31718 30130 ft 477 kts 287°
2026-05-06 12:47 41.28165 80.23234 30143 ft 477 kts 287°
2026-05-06 12:47 41.29949 80.14748 30140 ft 477 kts 287°
2026-05-06 12:48 41.31729 80.06251 30151 ft 477 kts 287°
2026-05-06 12:48 41.33491 79.97807 30146 ft 477 kts 287°
2026-05-06 12:49 41.35261 79.89297 30163 ft 477 kts 286°
2026-05-06 12:49 41.37024 79.80786 30163 ft 476 kts 286°
2026-05-06 12:50 41.38776 79.72293 30168 ft 476 kts 286°
2026-05-06 12:50 41.40522 79.63792 30183 ft 475 kts 286°
2026-05-06 12:51 41.42263 79.55285 30187 ft 475 kts 285°
2026-05-06 12:51 41.43993 79.46789 30191 ft 475 kts 285°
2026-05-06 12:52 41.45719 79.38287 30237 ft 475 kts 285°
2026-05-06 12:52 41.47146 79.31223 30338 ft 473 kts 285°
2026-05-06 12:52 41.48278 79.25600 31045 ft 466 kts 285°
2026-05-06 12:53 41.49103 79.21498 31499 ft 462 kts 285°
2026-05-06 12:53 41.49931 79.17367 31940 ft 459 kts 285°
2026-05-06 12:53 41.50754 79.13258 32216 ft 460 kts 285°
2026-05-06 12:54 41.52417 79.04925 32248 ft 467 kts 284°
2026-05-06 12:54 41.54090 78.96509 32298 ft 471 kts 285°
2026-05-06 12:55 41.55479 78.89493 32291 ft 471 kts 284°
2026-05-06 12:55 41.56496 78.80868 32323 ft 470 kts 274°
2026-05-06 12:56 41.56417 78.72143 32343 ft 470 kts 268°
2026-05-06 12:56 41.56086 78.63425 32359 ft 470 kts 267°
2026-05-06 12:57 41.55765 78.54690 32359 ft 470 kts 268°
2026-05-06 12:57 41.55459 78.45965 32363 ft 470 kts 268°
2026-05-06 12:58 41.55157 78.37289 32375 ft 471 kts 268°
2026-05-06 12:58 41.54847 78.28549 32370 ft 471 kts 268°
2026-05-06 12:59 41.54529 78.19814 32375 ft 471 kts 267°
2026-05-06 12:59 41.54205 78.11079 32367 ft 470 kts 267°
2026-05-06 13:00 41.53873 78.02359 32366 ft 470 kts 267°
2026-05-06 13:00 41.53535 77.93642 32352 ft 471 kts 267°
2026-05-06 13:01 41.53191 77.84901 32363 ft 472 kts 267°
2026-05-06 13:01 41.52841 77.76207 32346 ft 473 kts 267°
2026-05-06 13:02 41.52481 77.67426 32345 ft 474 kts 267°
2026-05-06 13:02 41.52119 77.58751 32330 ft 474 kts 266°
2026-05-06 13:03 41.51745 77.49977 32316 ft 472 kts 266°
2026-05-06 13:03 41.51368 77.41248 32312 ft 470 kts 266°
2026-05-06 13:04 41.50984 77.32535 32306 ft 469 kts 266°
2026-05-06 13:04 41.50594 77.23830 32302 ft 470 kts 266°
2026-05-06 13:05 41.50198 77.15128 32293 ft 470 kts 266°
2026-05-06 13:05 41.49797 77.06475 32280 ft 471 kts 266°
2026-05-06 13:06 41.49386 76.97762 32276 ft 470 kts 266°
2026-05-06 13:06 41.48970 76.89059 32272 ft 470 kts 266°
2026-05-06 13:07 41.48547 76.80349 32266 ft 470 kts 266°
2026-05-06 13:07 41.48132 76.71941 32248 ft 471 kts 265°
2026-05-06 13:08 41.47722 76.63742 32235 ft 471 kts 266°
2026-05-06 13:08 41.47278 76.55013 32229 ft 471 kts 265°
2026-05-06 13:09 41.46829 76.46289 32211 ft 472 kts 266°
2026-05-06 13:09 41.46372 76.37570 32683 ft 468 kts 265°
2026-05-06 13:09 41.46144 76.33254 33077 ft 465 kts 265°
2026-05-06 13:10 41.45915 76.28962 33485 ft 463 kts 265°
2026-05-06 13:10 41.45686 76.24692 33903 ft 460 kts 265°
2026-05-06 13:10 41.45457 76.20448 34229 ft 460 kts 265°
2026-05-06 13:11 41.44986 76.11817 34191 ft 472 kts 265°
2026-05-06 13:11 41.44503 76.03077 34176 ft 472 kts 265°
2026-05-06 13:12 41.44014 75.94377 34176 ft 468 kts 265°
2026-05-06 13:12 41.43524 75.85740 34174 ft 467 kts 265°
2026-05-06 13:13 41.43033 75.77200 34185 ft 466 kts 266°
2026-05-06 13:13 41.42530 75.68568 34183 ft 468 kts 266°
2026-05-06 13:14 41.42021 75.59926 34193 ft 469 kts 266°
2026-05-06 13:14 41.41506 75.51254 34192 ft 470 kts 266°
2026-05-06 13:15 41.40982 75.42560 34192 ft 471 kts 266°
2026-05-06 13:15 41.40450 75.33844 34203 ft 472 kts 266°
2026-05-06 13:16 41.39915 75.25176 34206 ft 473 kts 266°
2026-05-06 13:16 41.39380 75.16609 34198 ft 473 kts 266°
2026-05-06 13:17 41.38827 75.07867 34200 ft 473 kts 266°
2026-05-06 13:17 41.38266 74.99121 34186 ft 473 kts 266°
2026-05-06 13:18 41.37702 74.90394 34185 ft 473 kts 266°
2026-05-06 13:18 41.37131 74.81675 34191 ft 472 kts 266°
2026-05-06 13:19 41.36556 74.72973 34185 ft 472 kts 266°
2026-05-06 13:19 41.35975 74.64269 34185 ft 471 kts 266°
2026-05-06 13:20 41.35388 74.55577 34189 ft 471 kts 266°
2026-05-06 13:20 41.34792 74.46882 34194 ft 472 kts 266°
2026-05-06 13:21 41.34191 74.38164 34189 ft 473 kts 266°
2026-05-06 13:21 41.33583 74.29448 34186 ft 473 kts 266°
2026-05-06 13:22 41.32967 74.20721 34176 ft 473 kts 266°
2026-05-06 13:22 41.32347 74.12043 34176 ft 473 kts 266°
2026-05-06 13:23 41.31731 74.03477 34182 ft 472 kts 266°
2026-05-06 13:23 41.31177 73.94782 34172 ft 471 kts 268°
2026-05-06 13:24 41.30843 73.86070 34179 ft 470 kts 269°
2026-05-06 13:24 41.30522 73.77382 34182 ft 470 kts 269°
2026-05-06 13:25 41.30163 73.68702 34189 ft 470 kts 269°
2026-05-06 13:25 41.29780 73.60022 34204 ft 470 kts 269°
2026-05-06 13:26 41.29394 73.51406 34177 ft 469 kts 269°
2026-05-06 13:26 41.28998 73.42740 34168 ft 469 kts 269°
2026-05-06 13:27 41.28597 73.34072 34160 ft 469 kts 269°
2026-05-06 13:27 41.28187 73.25423 34159 ft 468 kts 270°
2026-05-06 13:28 41.27776 73.16777 34150 ft 468 kts 270°
2026-05-06 13:28 41.27356 73.08135 34150 ft 469 kts 270°
2026-05-06 13:29 41.26929 72.99491 34141 ft 469 kts 270°
2026-05-06 13:29 41.26497 72.90829 34123 ft 469 kts 271°
2026-05-06 13:30 41.26055 72.82170 34124 ft 470 kts 271°
2026-05-06 13:30 41.25612 72.73559 34122 ft 471 kts 271°
2026-05-06 13:31 41.25158 72.64866 34093 ft 471 kts 271°
2026-05-06 13:31 41.24695 72.56208 34079 ft 472 kts 272°
2026-05-06 13:32 41.24209 72.47504 34085 ft 473 kts 271°
2026-05-06 13:32 41.23715 72.38771 34123 ft 473 kts 271°
2026-05-06 13:32 41.23466 72.34430 34459 ft 469 kts 271°
2026-05-06 13:33 41.23220 72.30123 34789 ft 467 kts 271°
2026-05-06 13:33 41.22973 72.25836 35137 ft 465 kts 271°
2026-05-06 13:33 41.22726 72.21565 35414 ft 462 kts 271°
2026-05-06 13:33 41.22483 72.17331 35763 ft 459 kts 271°
2026-05-06 13:34 41.22245 72.13106 35996 ft 459 kts 272°
2026-05-06 13:34 41.21771 72.04587 36034 ft 466 kts 271°
2026-05-06 13:35 41.21280 71.95968 36036 ft 469 kts 271°
2026-05-06 13:35 41.20776 71.87290 36021 ft 473 kts 271°
2026-05-06 13:36 41.20265 71.78604 36009 ft 476 kts 271°
2026-05-06 13:36 41.19734 71.69820 35996 ft 478 kts 271°
2026-05-06 13:37 41.19189 71.61020 35984 ft 477 kts 271°
2026-05-06 13:37 41.18642 71.52268 35976 ft 474 kts 270°
2026-05-06 13:38 41.18092 71.43557 35991 ft 471 kts 270°
2026-05-06 13:38 41.17540 71.34902 35994 ft 469 kts 270°
2026-05-06 13:39 41.16989 71.26357 36019 ft 467 kts 270°
2026-05-06 13:39 41.16615 71.20606 36038 ft 467 kts 270°
2026-05-06 13:40 41.15878 71.09416 36080 ft 472 kts 270°
2026-05-06 13:40 41.15299 71.00687 36097 ft 477 kts 270°
2026-05-06 13:41 41.14703 70.91882 36092 ft 481 kts 269°
2026-05-06 13:41 41.14097 70.83018 36093 ft 482 kts 269°
2026-05-06 13:42 41.13488 70.74237 36107 ft 474 kts 269°
2026-05-06 13:42 41.12873 70.65581 36140 ft 471 kts 269°
2026-05-06 13:43 41.12244 70.56898 36122 ft 473 kts 269°
2026-05-06 13:43 41.11604 70.48229 36113 ft 477 kts 268°
2026-05-06 13:44 41.10947 70.39445 36123 ft 479 kts 268°
2026-05-06 13:44 41.10288 70.30614 36097 ft 482 kts 268°
2026-05-06 13:45 41.10002 70.21775 36110 ft 478 kts 276°
2026-05-06 13:45 41.11144 70.08708 36095 ft 475 kts 280°
2026-05-06 13:46 41.11938 70.00058 36068 ft 476 kts 279°
2026-05-06 13:46 41.12705 69.91349 36044 ft 475 kts 279°
2026-05-06 13:47 41.13459 69.82648 36041 ft 474 kts 279°
2026-05-06 13:47 41.14202 69.73969 36015 ft 473 kts 279°
2026-05-06 13:48 41.14938 69.65298 35990 ft 472 kts 279°
2026-05-06 13:48 41.15669 69.56632 35991 ft 471 kts 279°
2026-05-06 13:49 41.16392 69.47995 35978 ft 470 kts 278°
2026-05-06 13:49 41.17101 69.39434 35977 ft 470 kts 278°
2026-05-06 13:50 41.17807 69.30825 35967 ft 469 kts 278°
2026-05-06 13:50 41.18495 69.22206 35962 ft 469 kts 277°
2026-05-06 13:51 41.18776 69.13551 35958 ft 469 kts 274°
2026-05-06 13:51 41.18934 69.06352 35967 ft 469 kts 274°
2026-05-06 13:52 41.19187 68.96241 35964 ft 468 kts 274°
2026-05-06 13:52 41.19507 68.89077 35953 ft 467 kts 278°
2026-05-06 13:53 41.20471 68.79137 35947 ft 466 kts 278°
2026-05-06 13:53 41.21165 68.72039 35956 ft 467 kts 278°
2026-05-06 13:54 41.21977 68.63478 35938 ft 467 kts 278°
2026-05-06 13:54 41.22774 68.54903 35950 ft 468 kts 278°
2026-05-06 13:55 41.23563 68.46321 35949 ft 468 kts 278°
2026-05-06 13:55 41.24348 68.37721 35947 ft 469 kts 278°
2026-05-06 13:56 41.25128 68.29104 35946 ft 470 kts 277°
2026-05-06 13:56 41.25902 68.20484 35935 ft 470 kts 277°
2026-05-06 13:57 41.26672 68.11843 35943 ft 471 kts 277°
2026-05-06 13:57 41.27437 68.03175 35939 ft 473 kts 277°
2026-05-06 13:58 41.28201 67.94483 35944 ft 474 kts 278°
2026-05-06 13:58 41.29395 67.85932 35922 ft 473 kts 282°
2026-05-06 13:59 41.30770 67.77356 35941 ft 473 kts 282°
2026-05-06 13:59 41.32124 67.68789 35938 ft 473 kts 282°
2026-05-06 14:00 41.33456 67.60208 35936 ft 473 kts 282°
2026-05-06 14:00 41.34773 67.51634 35918 ft 473 kts 282°
2026-05-06 14:01 41.36085 67.43045 35940 ft 473 kts 282°
2026-05-06 14:01 41.37393 67.34444 35927 ft 474 kts 281°
2026-05-06 14:02 41.38696 67.25835 35918 ft 474 kts 281°
2026-05-06 14:02 41.39984 67.17280 35928 ft 474 kts 281°
2026-05-06 14:03 41.41274 67.08665 35919 ft 473 kts 281°
2026-05-06 14:03 41.42556 67.00055 35919 ft 473 kts 281°
2026-05-06 14:04 41.43802 66.91643 35918 ft 472 kts 281°
2026-05-06 14:04 41.45020 66.83386 35923 ft 472 kts 280°
2026-05-06 14:05 41.46277 66.74801 35920 ft 471 kts 280°
2026-05-06 14:05 41.47529 66.66225 35924 ft 471 kts 280°
2026-05-06 14:06 41.48376 66.57642 35923 ft 470 kts 271°
2026-05-06 14:06 41.48379 66.48927 35928 ft 470 kts 269°
2026-05-06 14:07 41.48359 66.40198 35924 ft 470 kts 270°
2026-05-06 14:07 41.48361 66.31474 35929 ft 471 kts 270°
2026-05-06 14:08 41.48367 66.22728 35913 ft 472 kts 270°
2026-05-06 14:08 41.48368 66.13972 35927 ft 472 kts 269°
2026-05-06 14:09 41.48361 66.05207 35930 ft 473 kts 269°
2026-05-06 14:09 41.48347 65.96444 35927 ft 473 kts 269°
2026-05-06 14:10 41.48327 65.87671 35926 ft 472 kts 269°
2026-05-06 14:10 41.48300 65.78915 35916 ft 471 kts 269°
2026-05-06 14:11 41.48227 65.70273 35912 ft 470 kts 269°
2026-05-06 14:11 41.48118 65.61564 35911 ft 469 kts 269°
2026-05-06 14:12 41.48007 65.52886 35911 ft 467 kts 268°
2026-05-06 14:12 41.47895 65.44238 35910 ft 465 kts 268°
2026-05-06 14:13 41.47780 65.35616 35909 ft 465 kts 268°
2026-05-06 14:13 41.47657 65.26995 35912 ft 465 kts 268°
2026-05-06 14:14 41.47530 65.18415 35914 ft 466 kts 268°
2026-05-06 14:14 41.47402 65.10320 35913 ft 467 kts 268°
2026-05-06 14:15 41.47271 65.02328 35911 ft 467 kts 268°
2026-05-06 14:15 41.47123 64.93655 35916 ft 468 kts 268°
2026-05-06 14:16 41.46968 64.84965 35907 ft 468 kts 268°
2026-05-06 14:16 41.46807 64.76278 35912 ft 469 kts 268°
2026-05-06 14:17 41.46638 64.67577 35909 ft 469 kts 267°
2026-05-06 14:17 41.46465 64.58939 35911 ft 469 kts 267°
2026-05-06 14:18 41.46283 64.50247 35911 ft 469 kts 267°
2026-05-06 14:18 41.46096 64.41540 35910 ft 469 kts 267°
2026-05-06 14:19 41.45901 64.32835 35922 ft 469 kts 267°
2026-05-06 14:19 41.45701 64.24194 35910 ft 469 kts 267°
2026-05-06 14:20 41.45494 64.15503 35894 ft 468 kts 267°
2026-05-06 14:20 41.45280 64.06820 35891 ft 468 kts 267°
2026-05-06 14:21 41.45060 63.98159 35887 ft 467 kts 267°
2026-05-06 14:21 41.44834 63.89497 35882 ft 467 kts 267°
2026-05-06 14:22 41.44604 63.80907 35877 ft 466 kts 266°
2026-05-06 14:22 41.44366 63.72283 35876 ft 465 kts 266°
2026-05-06 14:23 41.44121 63.63685 35875 ft 464 kts 266°
2026-05-06 14:23 41.43854 63.55079 35866 ft 464 kts 266°
2026-05-06 14:24 41.43577 63.46499 35865 ft 463 kts 266°
2026-05-06 14:24 41.43296 63.37908 35862 ft 463 kts 266°
2026-05-06 14:25 41.43011 63.29340 35857 ft 463 kts 266°
2026-05-06 14:25 41.42722 63.20830 35849 ft 462 kts 266°
2026-05-06 14:26 41.42425 63.12273 35847 ft 462 kts 266°
2026-05-06 14:26 41.42121 63.03716 35843 ft 462 kts 266°
2026-05-06 14:27 41.41811 62.95158 35839 ft 462 kts 266°
2026-05-06 14:27 41.41495 62.86591 35830 ft 463 kts 266°
2026-05-06 14:28 41.41174 62.78085 35837 ft 463 kts 266°
2026-05-06 14:28 41.40845 62.69527 35826 ft 463 kts 266°
2026-05-06 14:29 41.40509 62.60948 35822 ft 463 kts 266°
2026-05-06 14:29 41.40169 62.52389 35840 ft 463 kts 265°
2026-05-06 14:30 41.39838 62.43819 35825 ft 463 kts 266°
2026-05-06 14:30 41.39526 62.35267 35819 ft 462 kts 266°
2026-05-06 14:31 41.39209 62.26733 35814 ft 461 kts 266°
2026-05-06 14:31 41.38882 62.18203 35816 ft 461 kts 266°
2026-05-06 14:32 41.38548 62.09683 35812 ft 460 kts 265°
2026-05-06 14:32 41.38211 62.01232 35804 ft 459 kts 265°
2026-05-06 14:33 41.37865 61.92740 35814 ft 459 kts 265°
2026-05-06 14:33 41.37515 61.84269 35812 ft 458 kts 265°
2026-05-06 14:34 41.37159 61.75816 35802 ft 456 kts 265°
2026-05-06 14:34 41.36797 61.67386 35818 ft 456 kts 265°
2026-05-06 14:35 41.36432 61.59016 35809 ft 455 kts 265°
2026-05-06 14:35 41.36060 61.50607 35807 ft 455 kts 265°
2026-05-06 14:36 41.35682 61.42203 35805 ft 455 kts 265°
2026-05-06 14:36 41.35294 61.33787 35802 ft 455 kts 265°
2026-05-06 14:37 41.34898 61.25375 35800 ft 455 kts 265°
2026-05-06 14:37 41.34497 61.16957 35794 ft 456 kts 265°
2026-05-06 14:38 41.34092 61.08568 35794 ft 457 kts 265°
2026-05-06 14:38 41.33678 61.00117 35796 ft 458 kts 265°
2026-05-06 14:39 41.33257 60.91656 35790 ft 459 kts 264°
2026-05-06 14:39 41.32901 60.84596 35786 ft 460 kts 264°
2026-05-06 14:40 41.32467 60.76107 35789 ft 460 kts 264°
2026-05-06 14:40 41.32026 60.67605 35788 ft 461 kts 264°
2026-05-06 14:41 41.31579 60.59094 35783 ft 461 kts 264°
2026-05-06 14:41 41.31127 60.50594 35781 ft 461 kts 264°
2026-05-06 14:42 41.30752 60.42093 35784 ft 461 kts 268°
2026-05-06 14:42 41.31110 60.33626 35787 ft 462 kts 272°
2026-05-06 14:43 41.31562 60.25092 35780 ft 461 kts 271°
2026-05-06 14:43 41.31977 60.16579 35775 ft 461 kts 271°
2026-05-06 14:44 41.32380 60.08073 35800 ft 460 kts 271°
2026-05-06 14:45 41.32982 59.95342 35775 ft 458 kts 271°
2026-05-06 14:45 41.33379 59.86880 35785 ft 457 kts 271°
2026-05-06 14:46 41.33770 59.78436 35792 ft 456 kts 271°
2026-05-06 14:46 41.34145 59.70062 35811 ft 456 kts 269°
2026-05-06 14:47 41.33899 59.61675 35789 ft 452 kts 261°
2026-05-06 14:47 41.33087 59.53390 35794 ft 451 kts 261°
2026-05-06 14:48 41.32291 59.45110 35797 ft 451 kts 261°
2026-05-06 14:48 41.31504 59.36829 35785 ft 451 kts 261°
2026-05-06 14:49 41.30719 59.28557 35796 ft 450 kts 261°
2026-05-06 14:49 41.29934 59.20350 35787 ft 450 kts 261°
2026-05-06 14:50 41.29139 59.12110 35789 ft 449 kts 261°
2026-05-06 14:50 41.28339 59.03879 35790 ft 449 kts 261°
2026-05-06 14:51 41.27533 58.95653 35792 ft 448 kts 260°
2026-05-06 14:51 41.26723 58.87446 35791 ft 448 kts 260°
2026-05-06 14:52 41.25907 58.79237 35786 ft 447 kts 260°
2026-05-06 14:52 41.25087 58.71048 35789 ft 447 kts 260°
2026-05-06 14:53 41.24265 58.62904 35801 ft 447 kts 260°
2026-05-06 14:53 41.23433 58.54718 35811 ft 447 kts 259°
2026-05-06 14:54 41.22596 58.46541 35800 ft 447 kts 259°
2026-05-06 14:54 41.21753 58.38364 35790 ft 446 kts 259°
2026-05-06 14:55 41.20906 58.30201 35794 ft 446 kts 259°
2026-05-06 14:55 41.20052 58.22032 35786 ft 446 kts 259°
2026-05-06 14:56 41.19195 58.13876 35794 ft 446 kts 259°
2026-05-06 14:56 41.18335 58.05773 35790 ft 446 kts 259°
2026-05-06 14:57 41.17460 57.97615 35781 ft 446 kts 259°
2026-05-06 14:57 41.16581 57.89477 35795 ft 446 kts 259°
2026-05-06 14:58 41.15695 57.81322 35796 ft 446 kts 259°
2026-05-06 14:58 41.14805 57.73180 35802 ft 446 kts 259°
2026-05-06 14:59 41.13915 57.65087 35807 ft 446 kts 259°
2026-05-06 14:59 41.13014 57.56946 35833 ft 446 kts 259°
2026-05-06 15:00 41.12107 57.48819 35809 ft 445 kts 259°
2026-05-06 15:00 41.11197 57.40703 35811 ft 444 kts 258°
2026-05-06 15:01 41.10281 57.32599 35820 ft 443 kts 258°
2026-05-06 15:01 41.09369 57.24574 35826 ft 443 kts 258°
2026-05-06 15:02 41.08446 57.16505 35823 ft 442 kts 258°
2026-05-06 15:02 41.07519 57.08453 35824 ft 441 kts 258°
2026-05-06 15:03 41.06612 57.00622 35838 ft 441 kts 258°
2026-05-06 15:03 41.05676 56.92592 35838 ft 441 kts 258°
2026-05-06 15:04 41.04735 56.84572 35850 ft 440 kts 258°
2026-05-06 15:04 41.03791 56.76568 35844 ft 439 kts 258°
2026-05-06 15:05 41.02842 56.68575 35846 ft 439 kts 258°
2026-05-06 15:05 41.01895 56.60631 35869 ft 439 kts 258°
2026-05-06 15:06 41.00907 56.52652 35855 ft 438 kts 255°
2026-05-06 15:06 40.99248 56.44917 35852 ft 435 kts 249°
2026-05-06 15:07 40.97257 56.37362 35862 ft 435 kts 249°
2026-05-06 15:07 40.96268 56.33578 35994 ft 433 kts 249°
2026-05-06 15:07 40.95287 56.29815 36219 ft 431 kts 249°
2026-05-06 15:07 40.94323 56.26113 36438 ft 429 kts 249°
2026-05-06 15:08 40.93354 56.22392 36681 ft 427 kts 249°
2026-05-06 15:08 40.92388 56.18688 36977 ft 423 kts 249°
2026-05-06 15:08 40.91432 56.15027 37282 ft 420 kts 249°
2026-05-06 15:08 40.90481 56.11389 37588 ft 417 kts 249°
2026-05-06 15:09 40.89534 56.07774 37796 ft 417 kts 249°
2026-05-06 15:09 40.87622 56.00501 37869 ft 421 kts 249°
2026-05-06 15:10 40.85681 55.93141 37864 ft 427 kts 249°
2026-05-06 15:10 40.83714 55.85698 37873 ft 431 kts 249°
2026-05-06 15:11 40.81727 55.78198 37875 ft 434 kts 249°
2026-05-06 15:11 40.79723 55.70658 37879 ft 437 kts 249°
2026-05-06 15:12 40.77702 55.63080 37873 ft 439 kts 249°
2026-05-06 15:12 40.75668 55.55473 37903 ft 439 kts 248°
2026-05-06 15:13 40.73629 55.47873 37904 ft 439 kts 248°
2026-05-06 15:13 40.71599 55.40331 37889 ft 439 kts 248°
2026-05-06 15:14 40.69553 55.32748 37891 ft 438 kts 248°
2026-05-06 15:14 40.67510 55.25203 37915 ft 436 kts 248°
2026-05-06 15:15 40.65471 55.17693 37902 ft 435 kts 248°
2026-05-06 15:15 40.63428 55.10193 37926 ft 434 kts 248°
2026-05-06 15:16 40.61386 55.02718 37918 ft 433 kts 248°
2026-05-06 15:16 40.59357 54.95314 37913 ft 432 kts 248°
2026-05-06 15:17 40.57317 54.87890 37908 ft 431 kts 248°
2026-05-06 15:17 40.55275 54.80483 37912 ft 430 kts 248°
2026-05-06 15:18 40.53230 54.73083 37916 ft 430 kts 248°
2026-05-06 15:18 40.51195 54.65744 37917 ft 430 kts 248°
2026-05-06 15:19 40.49145 54.58371 37930 ft 430 kts 248°
2026-05-06 15:19 40.47087 54.50989 37929 ft 430 kts 248°
2026-05-06 15:20 40.45021 54.43601 37925 ft 431 kts 248°
2026-05-06 15:20 40.42946 54.36205 37932 ft 432 kts 248°
2026-05-06 15:21 40.40865 54.28804 37930 ft 432 kts 248°
2026-05-06 15:21 40.38790 54.21450 37925 ft 433 kts 248°
2026-05-06 15:22 40.36697 54.14050 37930 ft 433 kts 248°
2026-05-06 15:22 40.34597 54.06648 37932 ft 434 kts 247°
2026-05-06 15:23 40.32488 53.99236 37932 ft 434 kts 247°
2026-05-06 15:23 40.30373 53.91821 37945 ft 435 kts 247°
2026-05-06 15:24 40.28247 53.84394 37939 ft 435 kts 247°
2026-05-06 15:24 40.26119 53.76977 37940 ft 435 kts 247°
2026-05-06 15:25 40.23986 53.69566 37940 ft 435 kts 247°
2026-05-06 15:25 40.21850 53.62161 37944 ft 435 kts 247°
2026-05-06 15:26 40.19711 53.54772 37943 ft 434 kts 247°
2026-05-06 15:26 40.17571 53.47398 37947 ft 433 kts 247°
2026-05-06 15:27 40.15793 53.41287 37945 ft 432 kts 247°
2026-05-06 15:27 40.13665 53.33988 37941 ft 425 kts 247°
2026-05-06 15:28 40.11572 53.26831 37946 ft 420 kts 247°
2026-05-06 15:28 40.09481 53.19703 37950 ft 419 kts 247°
2026-05-06 15:29 40.07052 53.11441 37982 ft 420 kts 247°
2026-05-06 15:29 40.05376 53.05438 37971 ft 422 kts 251°
2026-05-06 15:30 40.04148 52.97923 37969 ft 425 kts 257°
2026-05-06 15:30 40.03640 52.90242 37969 ft 430 kts 263°
2026-05-06 15:31 40.03457 52.82434 37960 ft 431 kts 263°
2026-05-06 15:31 40.03283 52.74680 37863 ft 422 kts 263°
2026-05-06 15:32 40.03082 52.66999 36569 ft 423 kts 263°
2026-05-06 15:32 40.02975 52.63172 35959 ft 421 kts 263°
2026-05-06 15:32 40.02867 52.59367 35385 ft 418 kts 263°
2026-05-06 15:32 40.02757 52.55585 34820 ft 416 kts 263°
2026-05-06 15:33 40.02647 52.51814 34274 ft 414 kts 263°
2026-05-06 15:33 40.02535 52.48057 33695 ft 415 kts 263°
2026-05-06 15:33 40.02420 52.44277 33064 ft 418 kts 263°
2026-05-06 15:33 40.02304 52.40472 32462 ft 421 kts 263°
2026-05-06 15:34 40.02186 52.36645 31857 ft 423 kts 263°
2026-05-06 15:34 40.02068 52.32819 31273 ft 422 kts 263°
2026-05-06 15:34 40.01949 52.28989 30699 ft 421 kts 263°
2026-05-06 15:34 40.01830 52.25183 30126 ft 420 kts 263°
2026-05-06 15:35 40.01710 52.21387 29480 ft 420 kts 263°
2026-05-06 15:35 40.01585 52.17555 28850 ft 426 kts 263°
2026-05-06 15:35 40.01456 52.13660 28205 ft 433 kts 263°
2026-05-06 15:35 40.01324 52.09713 27618 ft 438 kts 263°
2026-05-06 15:36 40.01192 52.05732 27012 ft 442 kts 263°
2026-05-06 15:36 40.01059 52.01763 26420 ft 444 kts 263°
2026-05-06 15:36 40.00921 51.97673 25830 ft 445 kts 263°
2026-05-06 15:36 40.00787 51.93664 25248 ft 440 kts 263°
2026-05-06 15:37 40.00653 51.89736 24683 ft 435 kts 263°
2026-05-06 15:37 40.00518 51.85822 24120 ft 430 kts 263°
2026-05-06 15:37 40.00382 51.81944 23562 ft 425 kts 263°
2026-05-06 15:37 40.00246 51.78115 22914 ft 421 kts 263°
2026-05-06 15:38 40.00108 51.74308 22276 ft 418 kts 263°
2026-05-06 15:38 39.99971 51.70535 21655 ft 415 kts 263°
2026-05-06 15:38 39.99834 51.66793 21043 ft 412 kts 263°
2026-05-06 15:38 39.99697 51.63065 20445 ft 409 kts 263°
2026-05-06 15:39 39.99559 51.59370 19858 ft 407 kts 264°
2026-05-06 15:39 39.99427 51.55705 19276 ft 405 kts 265°
2026-05-06 15:39 39.99560 51.52078 18789 ft 406 kts 273°
2026-05-06 15:39 40.00086 51.48411 18260 ft 406 kts 278°
2026-05-06 15:40 40.00852 51.44922 17694 ft 407 kts 285°
2026-05-06 15:40 40.01949 51.41515 17122 ft 406 kts 289°
2026-05-06 15:40 40.03104 51.38165 16582 ft 403 kts 289°
2026-05-06 15:40 40.04251 51.34847 16068 ft 400 kts 289°
2026-05-06 15:41 40.05382 51.31552 15583 ft 396 kts 289°
2026-05-06 15:41 40.06498 51.28277 15099 ft 392 kts 289°
2026-05-06 15:41 40.07594 51.25044 14616 ft 386 kts 289°
2026-05-06 15:41 40.08668 51.21862 14141 ft 380 kts 288°
2026-05-06 15:42 40.09723 51.18722 13649 ft 375 kts 288°
2026-05-06 15:42 40.10760 51.15631 13130 ft 369 kts 289°
2026-05-06 15:42 40.11782 51.12578 12611 ft 365 kts 289°
2026-05-06 15:42 40.12791 51.09561 12107 ft 360 kts 289°
2026-05-06 15:43 40.13788 51.06575 11615 ft 356 kts 289°
2026-05-06 15:43 40.14771 51.03631 11204 ft 350 kts 289°
2026-05-06 15:43 40.15729 51.00766 11044 ft 337 kts 289°
2026-05-06 15:43 40.16651 50.98000 11026 ft 332 kts 289°
2026-05-06 15:44 40.17573 50.95221 11040 ft 333 kts 289°
2026-05-06 15:44 40.18490 50.92464 11028 ft 329 kts 289°
2026-05-06 15:44 40.19401 50.89725 11017 ft 326 kts 289°
2026-05-06 15:44 40.20302 50.87011 11019 ft 325 kts 289°
2026-05-06 15:45 40.21219 50.84313 11015 ft 324 kts 291°
2026-05-06 15:45 40.22245 50.81684 11026 ft 324 kts 292°
2026-05-06 15:45 40.23261 50.79099 11010 ft 313 kts 292°
2026-05-06 15:45 40.23977 50.76557 11013 ft 286 kts 278°
2026-05-06 15:46 40.24305 50.74067 11006 ft 270 kts 275°
2026-05-06 15:46 40.24555 50.71708 11007 ft 265 kts 274°
2026-05-06 15:46 40.24801 50.69310 11011 ft 266 kts 274°
2026-05-06 15:46 40.25048 50.66882 10802 ft 265 kts 274°
2026-05-06 15:47 40.25287 50.64506 10519 ft 262 kts 275°
2026-05-06 15:47 40.25522 50.62171 10179 ft 262 kts 274°
2026-05-06 15:47 40.25758 50.59815 9872 ft 260 kts 275°
2026-05-06 15:47 40.25992 50.57477 9520 ft 259 kts 275°
2026-05-06 15:48 40.26225 50.55142 9152 ft 258 kts 275°
2026-05-06 15:48 40.26458 50.52804 8789 ft 258 kts 275°
2026-05-06 15:48 40.26690 50.50474 8423 ft 258 kts 275°
2026-05-06 15:48 40.26922 50.48146 8077 ft 258 kts 276°
2026-05-06 15:49 40.27154 50.45817 7748 ft 257 kts 276°
2026-05-06 15:49 40.27385 50.43505 7423 ft 256 kts 276°
2026-05-06 15:49 40.27615 50.41202 7074 ft 252 kts 276°
2026-05-06 15:49 40.27841 50.38932 6501 ft 251 kts 277°
2026-05-06 15:50 40.28065 50.36683 6026 ft 246 kts 277°
2026-05-06 15:50 40.28281 50.34505 5673 ft 236 kts 278°
2026-05-06 15:50 40.28489 50.32412 5300 ft 228 kts 278°
2026-05-06 15:50 40.28692 50.30376 4855 ft 224 kts 279°
2026-05-06 15:51 40.28894 50.28344 4392 ft 226 kts 279°
2026-05-06 15:51 40.29094 50.26341 4087 ft 225 kts 280°
2026-05-06 15:51 40.29297 50.24312 3764 ft 225 kts 280°
2026-05-06 15:51 40.29501 50.22289 3467 ft 223 kts 279°
2026-05-06 15:52 40.29702 50.20268 3126 ft 225 kts 280°
2026-05-06 15:52 40.29902 50.18253 2859 ft 221 kts 281°
2026-05-06 15:52 40.30096 50.16298 2703 ft 213 kts 281°
2026-05-06 15:52 40.30281 50.14416 2524 ft 204 kts 281°
2026-05-06 15:53 40.30459 50.12607 2314 ft 197 kts 281°
2026-05-06 15:53 40.30634 50.10833 2052 ft 193 kts 282°
2026-05-06 15:53 40.30808 50.09111 2010 ft 190 kts 286°
2026-05-06 15:53 40.31377 50.07672 1988 ft 176 kts 325°
2026-05-06 15:54 40.32493 50.07067 2006 ft 175 kts 348°
2026-05-06 15:54 40.33694 50.06790 1998 ft 175 kts 352°
2026-05-06 15:54 40.34899 50.06589 1983 ft 174 kts 353°
2026-05-06 15:54 40.36075 50.06481 1897 ft 165 kts 357°
2026-05-06 15:55 40.37174 50.06452 1697 ft 152 kts 359°
2026-05-06 15:55 40.38205 50.06436 1489 ft 144 kts 359°
2026-05-06 15:55 40.39183 50.06422 1317 ft 140 kts 358°
2026-05-06 15:55 40.40160 50.06407 1116 ft 141 kts 358°
2026-05-06 15:56 40.41143 50.06392 935 ft 142 kts 358°
2026-05-06 15:56 40.42151 50.06377 737 ft 145 kts 357°
2026-05-06 15:56 40.43173 50.06357 567 ft 148 kts 357°
2026-05-06 15:56 40.44213 50.06338 318 ft 150 kts 357°
2026-05-06 15:57 40.45244 50.06334 106 ft 147 kts 356°
2026-05-06 15:57 40.46241 50.06305 -5 ft 135 kts 359°
2026-05-06 15:57 40.47026 50.06296 1 ft 92 kts 359°
2026-05-06 15:57 40.47512 50.06289 4 ft 48 kts 359°
2026-05-06 15:58 40.47745 50.06286 9 ft 30 kts 359°
2026-05-06 15:58 40.48030 50.06280 12 ft 50 kts 359°
2026-05-06 15:58 40.48366 50.06278 12 ft 42 kts 360°
2026-05-06 15:58 40.48503 50.06167 14 ft 23 kts 275°
2026-05-06 15:59 40.48407 50.06064 13 ft 20 kts 178°
2026-05-06 15:59 40.48264 50.06069 12 ft 20 kts 179°
2026-05-06 15:59 40.48122 50.06071 11 ft 20 kts 179°
2026-05-06 15:59 40.47989 50.06072 10 ft 12 kts 179°
2026-05-06 16:00 40.47906 50.06073 9 ft 12 kts 179°
2026-05-06 16:00 40.47824 50.06074 8 ft 12 kts 179°
2026-05-06 16:00 40.47739 50.06074 8 ft 13 kts 180°
2026-05-06 16:00 40.47641 50.06077 7 ft 15 kts 179°
2026-05-06 16:01 40.47527 50.06074 6 ft 17 kts 180°
2026-05-06 16:01 40.47400 50.06079 5 ft 19 kts 178°
2026-05-06 16:01 40.47265 50.06081 4 ft 19 kts 179°
2026-05-06 16:01 40.47131 50.06084 3 ft 19 kts 179°
2026-05-06 16:02 40.46996 50.06084 1 ft 19 kts 189°
2026-05-06 16:02 40.46946 50.05960 1 ft 17 kts 269°
2026-05-06 16:02 40.46943 50.05806 1 ft 17 kts 268°
2026-05-06 16:02 40.46939 50.05651 1 ft 17 kts 268°
2026-05-06 16:03 40.46936 50.05496 2 ft 17 kts 268°
2026-05-06 16:03 40.46889 50.05387 2 ft 15 kts 186°
2026-05-06 16:03 40.46843 50.05306 2 ft 11 kts 266°
2026-05-06 16:03 40.46837 50.05247 2 ft 5 kts 247°
2026-05-06 16:04 40.46806 50.05235 2 ft 5 kts 180°
2026-05-06 16:04 40.46767 50.05235 2 ft 6 kts 179°
2026-05-06 16:04 40.46742 50.05236 2 ft 0 kts 179°
2026-05-06 16:04 40.46741 50.05236 2 ft 0 kts 179°